Location: Fuglau
(48.6333°N, 15.5500°E)
Time: 09:57:02
(UTC+00:00)

MetOp-A - Pass Details

Date: 27 February 2020
Orbit: 819 x 821 km, 98.5° (Epoch: 09 April)

Event Time Altitude Azimuth Distance (km) Brightness Sun altitude
Exits shadow 18:46:48 45° 131° (SE) 1,112 4.4 -22.0°
Maximum altitude 18:48:19 65° 71° (ENE) 907 4.1 -22.3°
Drops below altitude 10° 18:53:38 10° 351° (N) 2,431 6.9 -23.1°
Sets 18:56:01 0° 348° (NNW) 3,368 7.7 -23.5°
